Location: Gu�tanj
(46.5431°N, 14.9692°E)
Time: 20:55:24
(UTC+00:00)

Cosmos 1869 Rocket - Pass Details

Date: 03 March 2021
Orbit: 605 x 633 km, 82.5° (Epoch: 20 April)

Event Time Altitude Azimuth Distance (km) Brightness Sun altitude
Rises 18:13:03 0° 166° (SSE) 2,858 6.8 -15.2°
Reaches altitude 10° 18:15:22 10° 158° (SSE) 1,963 5.8 -15.6°
Maximum altitude 18:19:21 37° 91° (E) 970 4.0 -16.3°
Drops below altitude 10° 18:23:24 10° 25° (NNE) 1,994 6.0 -17.0°
Sets 18:25:46 0° 17° (NNE) 2,910 6.9 -17.4°
